Location: Rayville (historical)
(39.9992°N, 99.6815°W)
Time: 04:48:58
(UTC+00:00)

Lacrosse 5 - Pass Details

Date: 18 February 2020
Orbit: 715 x 724 km, 57.0° (Epoch: 21 March)

Event Time Altitude Azimuth Distance (km) Brightness Sun altitude
Exits shadow 10:24:32 21° 36° (NE) 1,587 4.0 -35.6°
Drops below altitude 10° 10:27:53 10° 77° (ENE) 2,207 5.2 -35.0°
Sets 10:30:48 0° 93° (E) 3,127 6.1 -34.5°
